Track GLOBALSTAR M042 now! 10-day predictions GLOBALSTAR M042 is classified as:
1 25679U 99019D 21026.04256691 -.00000037 00000-0 51962-3 0 9998 2 25679 51.9997 256.3492 0001818 235.2530 273.0261 12.22021466989328